Regional Weather Roundup
Issued by NWS

Home | Current Version | Previous Version | Text Only | Print | Product List | Glossary On
Versions: 1 2 3 4 5 6 7 8 9 10 11 12 13 14 15 16 17 18 19 20 21 22 23 24 25 26 27 28 29 30 31 32 33 34 35 36 37 38 39 40 41 42 43 44 45 46 47 48 49 50
000
ASUS43 KDTX 281510
RWRMI
MICHIGAN HOURLY REGIONAL WEATHER ROUNDUP
NATIONAL WEATHER SERVICE DETROIT/PONTIAC MI
1000 AM EST SAT FEB 28 2015

NOTE: "FAIR" INDICATES FEW OR NO CLOUDS BELOW 12,000 FEET WITH NO
SIGNIFICANT WEATHER AND/OR OBSTRUCTION TO VISIBILITY.

MIZ047>049-052>055-059>063-066>070-074>076-081>083-281600-
SOUTHEAST LOWER MICHIGAN

CITY           SKY/WX    TMP DP  RH WIND       PRES   REMARKS
ADRIAN         SUNNY      3  -2  79 CALM      30.76S
ALMA           SUNNY      9   1  72 S6        30.72R
ANN ARBOR      SUNNY      9   0  67 CALM      30.75R
BAD AXE        SUNNY     11   4  72 SW8       30.71S
DETROIT CITY   SUNNY     13   0  56 SW5       30.77R
DETROIT        MOSUNNY    8   0  69 S3        30.78R
FLINT          SUNNY     13  -1  54 SW5       30.73S
GROSSE ILE     SUNNY      7   0  72 CALM      30.77S
HILLSDALE      SUNNY     11  -1  57 S6        30.70S
HOWELL         SUNNY     10  -1  61 SW5       30.72S

CITY           SKY/WX    TMP DP  RH WIND       PRES   REMARKS
JACKSON        SUNNY     10   0  63 SW6       30.72R
LAMBERTVILLE     N/A     16   3  57 SW3       30.77S
LANSING        SUNNY     10  -1  61 S8        30.73R
LAPEER         NOT AVBL
MASON          SUNNY      7  -3  64 CALM      30.72S
MONROE         SUNNY      9   0  66 CALM      30.76S
MT. CLEMENS    MOSUNNY    7  -1  71 E3        30.74R
PONTIAC        MOSUNNY   11   0  61 VRB3      30.71S
PORT HOPE        N/A     12   2  64 SW9       30.70R
PORT HURON     SUNNY      9   1  72 S5        30.75S
TRI CITIES     SUNNY     11   3  70 SW8       30.72S
YPSILANTI      SUNNY      8   0  69 E7        30.77R
$$
MIZ043>046-050>051-056>058-064>065-071>073-077>080-281600-
SOUTHWEST LOWER MICHIGAN

CITY           SKY/WX    TMP DP  RH WIND       PRES   REMARKS
BATTLE CREEK   SUNNY      7  -3  64 SW7       30.72R
BENTON HARBOR  SUNNY      6  -1  73 S6        30.74S
BIG RAPIDS     SUNNY     10   9  93 SE7       30.65R
COLDWATER      SUNNY      1  -5  75 CALM      30.72S
HOLLAND        SUNNY      7   0  73 S9        30.72S
GRAND RAPIDS   MOSUNNY    9   0  67 S9        30.71R
KALAMAZOO      SUNNY      5  -1  76 S7        30.73R
MARSHALL       SUNNY      7  -1  72 S3        30.72S
MUSKEGON       CLOUDY    16   9  74 S9        30.71R
$$
MIZ016>042-281600-
NORTHERN LOWER MICHIGAN

CITY           SKY/WX    TMP DP  RH WIND       PRES   REMARKS
ALPENA         SUNNY     15   4  61 SW6       30.64R
BEAVER ISLAND  SUNNY     14   6  70 SW8       30.59S
BELLAIRE       SUNNY     13   6  74 S5        30.65S
CADILLAC       SUNNY      8   2  77 SW7       30.58S
CHARLEVOIX     SUNNY     15   6  68 SW7       30.64R
FRANKFORT      MOSUNNY   18   9  69 SW9       30.64S
GAYLORD        SUNNY      9   4  80 SW9       30.56R
GRAYLING       SUNNY     13   5  69 SW6       30.60S
HARBOR SPRINGS SUNNY     13   4  68 SW6       30.61R
HOUGHTON LAKE  SUNNY      8   3  80 SW6       30.62R
MANISTEE       SUNNY      7   1  78 E3        30.66R
OSCODA         SUNNY     11   4  73 W7        30.67S
PELLSTON       SUNNY     14   4  64 SW6       30.60R
TRAVERSE CITY  MOSUNNY   14   6  70 VRB3      30.63R
$$
MIZ007>008-015-281600-
EASTERN UPPER MICHIGAN

CITY           SKY/WX    TMP DP  RH WIND       PRES   REMARKS
KINROSS        SUNNY     14   7  73 SW6       30.56S
MACKINAC ISLAN SUNNY     11   3  71 SW7       30.58S
NEWBERRY       SUNNY      5  -3  68 SW6       30.54S
S. S. MARIE    SUNNY      2  -1  88 NE3       30.58R
$$
MIZ004>006-011>014-085-281600-
CENTRAL UPPER MICHIGAN

CITY           SKY/WX    TMP DP  RH WIND       PRES   REMARKS
MANISTIQUE     SUNNY     11  -1  58 W7        30.57S
ESCANABA       SUNNY      7  -2  66 SW7       30.61R
MENOMINEE      SUNNY      7  -2  66 SW6       30.62S
SAWYER-GWINN   SUNNY      0  -8  71 SW3       30.49S
$$
MIZ001>003-009>011-084-281600-
WESTERN UPPER MICHIGAN

CITY           SKY/WX    TMP DP  RH WIND       PRES   REMARKS
IRON MOUNTAIN  SUNNY      5  -4  66 NW3       30.52S
HOUGHTON       SUNNY      5  -4  66 S7        30.45R
COPPER HARBOR    N/A     15   1  53 W5        30.48R
IRONWOOD       SUNNY      3   1  92 S6        30.44S
$$

ABBREVIATIONS USED IN REMARKS
   TC - TEMPERATURE IN CELSIUS
  WCI - WIND CHILL INDEX
   HX - HEAT INDEX
  VSB - VISIBILITY




USA.gov is the U.S. government's official web portal to all federal, state and local government web resources and services.